Location: St. Louis
(38.6270°N, 90.1994°W)
Time: 12:20:39
(UTC-06:00)

A-11 Canister half - Pass Details

Date: 06 December 2021
Orbit: 1524 x 1684 km, 47.3° (Epoch: 25 January)

Event Time Altitude Azimuth Distance (km) Brightness Sun altitude
Rises 21:48:48 0° 182° (S) 4,876 - -59.2°
Reaches altitude 10° 21:53:04 10° 167° (SSE) 3,911 - -60.0°
Maximum altitude 21:59:44 20° 124° (SE) 3,191 - -61.2°
Drops below altitude 10° 22:06:26 10° 82° (E) 3,948 - -62.3°
Sets 22:10:42 0° 67° (ENE) 4,935 - -63.1°
